Vertical_Velocity
-9 3 -8 2 -1 0 4 -4 -8 11 4 -10 -4 -3 -3 4 1 -6 1 -19 -8 -5 -8 -4 3 5 7 8 -1 -4 -2 -1 -1 -1 4 5 -1 -1 0 1 3 4 2 1
3 8 -6 -5 -2 -4 -4 -1 11 -5 3 -13 -5 5 -4 7 7 4 -2 -7 -12 -3 -3 -4 -8 0 3 5 6 1 1 -0 -1 5 1 1 1 4 7 3 2 2 4 -1
-1 7 -2 -6 4 -6 0 -5 -2 -15 4 2 -10 -22 2 10 2 5 9 7 -26 -18 -5 2 -1 5 3 3 4 1 -2 3 4 2 0 -3 1 7 2 -3 -2 0 2 -1
-10 -1 -4 -5 0 -6 -11 15 -10 -3 -4 -7 8 -73 22 15 0 3 -1 1 -10 -13 -12 -1 4 3 7 7 -2 -3 -5 1 1 -1 5 1 8 6 -1 3 4 1 -1 1
14 2 -8 -2 1 8 -15 2 -0 5 -5 -25 44 -28 -45 -17 4 -7 0 20 13 -14 -2 -10 -2 0 -2 -2 14 7 -4 -4 -1 -1 6 2 5 -3 -1 2 -0 1 1 1
10 2 -1 -2 0 5 -3 -1 -5 -1 3 -36 56 16 -79 17 -10 -3 13 4 21 -2 -6 1 0 7 8 7 16 4 -6 2 8 1 -0 3 4 -1 2 2 1 -0 -1 0
-4 17 7 -8 -22 20 12 2 -29 -15 6 -23 21 1 -19 -15 14 -15 -11 -5 8 1 -19 -9 1 22 28 22 0 -2 -6 -4 -2 1 5 8 5 3 4 1 -0 -0 2 -1
-14 -66 16 2 -7 -17 15 10 11 -11 -21 -17 -12 -41 -23 10 -18 -7 -12 -14 -22 -9 -6 -2 16 19 18 9 -5 7 -3 -11 -1 -5 -5 -1 5 7 3 2 -3 1 0 -0
3 -62 -1 30 6 30 -10 -10 22 6 1 -2 -24 -30 -18 -1 18 -13 -3 -2 -1 -2 -1 10 16 16 5 11 0 3 1 -5 -1 1 -6 -2 1 4 3 5 -1 0 -0 -0
6 -20 -30 -15 3 26 9 -6 -0 27 0 1 -6 -8 -15 -17 9 -5 -16 -6 6 3 1 6 -4 7 4 -3 2 -2 2 -2 -7 -6 4 1 -2 2 3 -0 -0 1 -2 -2
21 9 -55 -9 -18 2 23 3 19 11 -0 13 2 -10 12 3 2 3 2 -3 -9 6 10 7 13 7 -6 2 -2 12 5 -8 -4 -4 0 -1 -3 1 1 0 -0 -1 -0 -2
29 7 -16 -15 3 2 10 -35 17 11 -12 9 1 -37 -0 8 0 -3 -9 7 56 4 39 -17 3 -0 -3 7 7 16 10 -6 -3 -3 1 -2 -0 -0 -3 -2 0 0 -2 -1
7 -9 3 -35 -5 19 2 3 17 25 0 -20 14 -13 2 1 25 36 55 -9 28 -2 8 -6 1 13 4 13 13 14 3 -4 -1 -2 1 -1 -2 -1 -2 -1 -0 -1 -4 -3
19 3 3 -15 -4 -0 -12 4 14 17 8 12 2 5 5 -2 2 -7 14 16 -9 5 14 -14 0 11 5 0 5 6 7 2 -4 -2 -0 0 -1 -4 -3 -2 1 1 -1 -3
3 -10 17 -9 -10 5 6 -3 4 11 15 16 6 -20 -9 10 41 -4 -6 1 23 -2 -3 13 6 19 9 -4 -1 2 1 -2 -2 -1 -3 1 9 3 -1 -4 -2 2 -0 0
0 -15 1 -12 7 -3 -3 -14 12 8 1 -2 2 -48 28 1 -5 -18 -10 -5 -5 -1 12 19 9 -11 7 2 7 9 -9 -1 -0 -1 -1 -2 -0 7 40 30 23 -2 18 0
-11 4 8 -5 14 17 -29 13 17 -12 4 3 -13 11 8 12 6 -7 -3 -1 7 3 4 10 1 3 1 1 9 1 4 -4 0 -1 -4 -0 3 2 -3 -3 0 1 -2 6
-15 13 19 16 1 -21 16 0 -3 -7 10 21 -10 0 -2 4 3 6 9 5 2 -6 -9 -4 -8 10 8 -0 9 -0 1 -5 -0 2 3 1 -2 1 2 1 2 -1 -1 5
-16 11 6 -10 3 -2 6 5 -4 -11 37 -5 -3 0 -1 1 8 8 11 15 3 -1 2 -9 -13 -5 2 3 4 -1 0 -1 0 -4 -2 -1 0 -3 -0 1 -0 1 1 2
41 30 2 4 -6 -16 9 6 2 -1 0 6 1 1 1 -2 -1 1 -4 0 0 -1 4 1 -4 8 5 4 -1 -2 -2 2 3 -6 -2 2 -1 1 2 1 1 5 0 3
-6 4 13 69 19 -1 7 12 -5 -8 9 -1 -3 4 12 4 -3 -7 -6 -5 -4 2 1 1 14 -9 -6 -2 3 -4 5 3 2 -6 -3 0 -0 -2 -1 1 0 0 1 -2
4 7 -4 -5 1 6 -14 4 -1 7 -0 -2 5 3 8 6 0 -0 -4 -6 -7 0 -5 0 -4 -2 3 -1 0 -4 0 -3 1 -2 1 2 -2 -1 -0 1 0 12 -1 7
2 4 0 -6 17 -9 6 26 -10 6 2 2 -3 -1 -1 -9 -3 -4 -5 -2 -6 -11 4 -1 -4 3 5 -1 -1 -6 -4 -0 -1 -2 -1 -1 1 0 2 4 4 6 7 9
-3 -5 12 1 2 -6 2 24 9 -2 9 4 1 -7 -11 -7 -3 -9 -1 -7 -5 -3 -4 2 -1 -1 -0 -0 -0 -0 1 -0 1 -0 -1 -1 0 -1 1 0 -0 0 -0 2
10 12 26 32 26 5 13 2 -14 -2 1 -4 -8 -8 -2 2 -3 -6 2 -2 -2 -1 -3 -5 -1 0 -3 -2 -1 -3 -1 -2 -0 -0 -1 1 0 1 3 2 1 1 2 2
12 23 9 6 10 13 3 5 4 5 2 3 -0 -5 -1 -8 -6 2 -0 -1 -2 -1 0 -3 1 3 -0 -1 -1 -3 1 1 -1 -2 -1 1 0 1 -2 -0 -0 2 2 1
Height
5760 5759 5757 5754 5750 5749 5747 5744 5741 5741 5738 5734 5733 5729 5730 5730 5726 5725 5723 5721 5721 5719 5718 5721 5720 5719 5720 5720 5718 5716 5717 5716 5717 5718 5719 5718 5717 5716 5716 5717 5717 5717 5716 5716
5752 5749 5747 5745 5742 5738 5737 5733 5731 5731 5727 5722 5723 5724 5724 5721 5721 5715 5711 5708 5708 5706 5704 5704 5711 5710 5708 5710 5707 5705 5706 5707 5707 5708 5707 5706 5705 5705 5705 5704 5704 5705 5704 5703
5742 5741 5738 5736 5733 5729 5726 5720 5721 5717 5717 5714 5711 5712 5714 5712 5710 5708 5705 5702 5698 5698 5696 5696 5696 5698 5698 5699 5698 5696 5695 5695 5695 5696 5695 5694 5694 5693 5692 5692 5692 5693 5693 5692
5734 5731 5728 5724 5723 5716 5716 5712 5707 5705 5704 5703 5700 5697 5706 5701 5695 5696 5696 5693 5689 5689 5686 5686 5687 5688 5688 5688 5686 5686 5685 5684 5683 5684 5685 5685 5685 5683 5682 5682 5683 5683 5683 5683
5725 5720 5717 5716 5713 5705 5705 5700 5695 5693 5691 5689 5691 5683 5695 5684 5680 5679 5681 5680 5672 5674 5674 5674 5676 5678 5677 5676 5675 5673 5676 5677 5676 5675 5674 5674 5675 5673 5673 5674 5673 5673 5672 5672
5712 5710 5708 5704 5704 5694 5691 5687 5683 5678 5676 5672 5682 5669 5672 5678 5670 5668 5670 5669 5666 5664 5666 5664 5664 5665 5664 5665 5663 5662 5665 5665 5665 5665 5665 5666 5665 5664 5664 5663 5663 5662 5662 5660
5697 5699 5696 5689 5689 5687 5680 5671 5668 5664 5662 5656 5671 5651 5656 5665 5656 5652 5655 5655 5654 5653 5654 5654 5652 5653 5653 5651 5653 5653 5654 5655 5656 5656 5656 5657 5656 5655 5653 5652 5651 5651 5650 5649
5671 5683 5682 5675 5673 5673 5671 5660 5652 5640 5643 5645 5650 5639 5645 5639 5638 5637 5637 5637 5639 5640 5640 5640 5640 5640 5639 5638 5639 5642 5644 5645 5647 5646 5646 5646 5646 5644 5643 5642 5641 5641 5640 5640
5655 5657 5677 5664 5661 5657 5659 5648 5643 5628 5625 5619 5622 5625 5628 5632 5621 5620 5622 5622 5621 5623 5625 5626 5625 5624 5625 5623 5626 5630 5632 5635 5638 5638 5638 5637 5636 5635 5634 5632 5631 5631 5631 5631
5639 5624 5650 5655 5645 5648 5633 5635 5628 5622 5607 5602 5600 5603 5607 5612 5610 5605 5606 5606 5608 5610 5611 5612 5614 5615 5616 5614 5615 5619 5621 5625 5627 5627 5627 5626 5627 5626 5625 5624 5623 5623 5622 5622
5625 5611 5615 5623 5632 5624 5625 5615 5609 5600 5598 5589 5586 5587 5597 5596 5593 5591 5589 5592 5594 5597 5599 5602 5601 5602 5603 5607 5610 5610 5611 5614 5615 5615 5616 5614 5616 5616 5615 5614 5614 5614 5614 5614
5619 5586 5586 5594 5604 5598 5591 5595 5595 5582 5577 5577 5570 5570 5583 5582 5580 5577 5580 5581 5579 5583 5583 5587 5584 5585 5591 5595 5599 5598 5600 5603 5603 5604 5604 5604 5605 5606 5606 5606 5605 5605 5605 5606
5589 5579 5565 5569 5578 5583 5576 5578 5576 5565 5556 5555 5556 5559 5568 5565 5565 5568 5564 5570 5569 5574 5577 5576 5580 5580 5586 5591 5591 5590 5593 5592 5591 5593 5593 5593 5595 5596 5596 5596 5596 5596 5596 5596
5563 5557 5552 5549 5553 5559 5556 5558 5556 5548 5544 5542 5542 5545 5554 5553 5551 5554 5557 5553 5556 5560 5560 5561 5565 5570 5576 5579 5582 5582 5583 5582 5580 5581 5583 5583 5584 5585 5585 5585 5586 5587 5587 5587
5543 5535 5537 5535 5538 5541 5538 5537 5540 5537 5535 5529 5532 5529 5540 5537 5536 5531 5536 5540 5543 5548 5552 5557 5556 5558 5567 5569 5571 5571 5570 5570 5569 5570 5571 5573 5575 5575 5576 5576 5576 5578 5578 5578
5528 5518 5522 5520 5525 5523 5523 5526 5525 5525 5527 5523 5521 5522 5523 5519 5518 5520 5527 5532 5535 5539 5542 5544 5547 5553 5557 5557 5556 5558 5557 5558 5558 5558 5560 5561 5564 5566 5566 5566 5565 5568 5569 5569
5513 5510 5509 5512 5513 5511 5514 5518 5509 5514 5516 5516 5514 5516 5515 5513 5513 5513 5517 5521 5525 5528 5529 5532 5534 5536 5538 5543 5545 5547 5546 5547 5547 5548 5549 5551 5553 5554 5555 5557 5558 5558 5559 5559
5501 5501 5501 5502 5503 5503 5508 5505 5506 5507 5510 5510 5507 5508 5509 5509 5508 5509 5511 5514 5514 5515 5517 5519 5521 5526 5527 5532 5538 5537 5537 5537 5537 5539 5540 5541 5542 5544 5546 5547 5547 5547 5548 5549
5491 5492 5492 5493 5494 5495 5495 5496 5496 5499 5501 5500 5501 5501 5502 5504 5504 5505 5505 5506 5508 5510 5511 5512 5514 5516 5519 5525 5526 5527 5527 5528 5529 5530 5532 5532 5534 5534 5535 5536 5537 5537 5538 5539
5482 5483 5485 5487 5486 5487 5489 5490 5492 5492 5492 5495 5496 5496 5498 5499 5498 5499 5498 5500 5500 5502 5502 5504 5505 5507 5510 5514 5517 5517 5519 5520 5522 5522 5523 5523 5524 5525 5525 5526 5527 5528 5528 5530
5475 5477 5477 5480 5481 5482 5483 5485 5485 5487 5491 5489 5489 5491 5492 5491 5493 5494 5493 5493 5494 5494 5494 5494 5496 5497 5501 5504 5509 5510 5512 5514 5515 5515 5516 5516 5516 5516 5517 5518 5519 5520 5521 5522
5471 5473 5474 5476 5478 5479 5479 5478 5480 5482 5483 5484 5486 5485 5484 5485 5487 5486 5486 5486 5487 5487 5487 5486 5487 5488 5492 5497 5501 5503 5505 5506 5508 5507 5508 5508 5508 5508 5509 5509 5511 5511 5513 5514
5469 5470 5472 5473 5475 5473 5475 5474 5472 5476 5478 5478 5479 5479 5478 5478 5478 5478 5477 5478 5478 5479 5479 5481 5482 5483 5485 5490 5493 5496 5499 5501 5501 5500 5500 5500 5500 5499 5499 5500 5500 5502 5503 5504
5465 5468 5471 5469 5471 5469 5470 5468 5467 5470 5473 5473 5472 5471 5471 5471 5470 5469 5468 5469 5470 5470 5471 5473 5477 5479 5482 5485 5489 5491 5493 5494 5494 5493 5493 5492 5492 5490 5490 5490 5490 5491 5491 5492
5463 5465 5467 5465 5463 5463 5463 5463 5464 5466 5467 5467 5466 5466 5464 5463 5460 5460 5460 5459 5460 5462 5464 5467 5472 5475 5479 5482 5484 5485 5487 5488 5488 5487 5486 5486 5484 5483 5481 5482 5481 5482 5482 5483
5459 5460 5460 5460 5459 5460 5459 5460 5461 5462 5461 5460 5460 5459 5457 5456 5454 5453 5452 5452 5453 5455 5458 5461 5467 5470 5474 5476 5479 5480 5482 5482 5482 5481 5480 5479 5477 5476 5473 5472 5472 5474 5475 5475